ORBCOMM FM119 [+]

Last updated on Sept. 7, 2017, 12:18 a.m. UTC

1 41180U 15081B   17249.42454869  .00000012  00000-0  41110-4 0  9998
2 41180  47.0006 233.2507 0001346  10.0096 350.0814 14.54600337 91920
UTC
Height (km)
Latitude
Longitude
Inclination
Orbital Period
UTC large
Height (km)
Speed (km/s)
/
Latitude / Longitude
Inclination (degrees)
Orbital Period (minutes)
Azimuth
Elevation
Range (km)
Doppler Factor
iOS Compass Heading
iOS Angle